STARLINK-2070 (47360 NORAD) Tracking and Keplerian Element Data

This shows tracking and keplerian element data for the satellite.

Feedback or suggestion? Click here.




ElementValue
Catalog47360
NameSTARLINK-2070
Epoch Orbit1307
Epoch Day101.91668981
Epoch Year2021
RAAN171.9335
Inclination53.0535
Eccentricity0.0004217
Argument of Perigee12.3772
Mean Anonmoly150.5918
Mean Motion15.62804714
Decay Rate-0.00023239
L11 47360U 21005M 21101.91668981 -.00023239 00000-0 -24803-3 0 9992
L22 47360 53.0535 171.9335 0004217 12.3772 150.5918 15.62804714 13076

Live tracking and technical data element details for STARLINK-2070 (NORAD 47360). STARLINK-2070 can be tracked NOW for your location showing map with azimuth and elevation plus other details from your city location.

Track the satellite on the map from your city or location and see movement details for azimuth, elevation, latitude, longitude, range, height, and movement on the map or in text.







IsCatalogInMostPopularTable: catalog: 47360, numindb: 13
Update: records affected: 1



GetName: 47360 STARLINK-2070

Hit Count: updated at: Tue, 13 Apr 2021 04:54:22 GMT